Home   Weather   Al Jizah   Past weeks

Flag for Egypt Past Weather in Al Jizah, Egypt — Yesterday and Last 2 Weeks

72 °F


Feels Like: 71 °F
Forecast: 67 / 86 °F
Wind: 6 mph from Northeast

Location: Cairo Airport

Current Time: Oct 25, 2016 at 3:36:16 AM

Latest Report: Oct 25, 2016 at 3:00 AM

Visibility: 2 mi

Pressure: 29.95 "Hg

Humidity: 83%

Dew Point: 66 °F

Location of Al JizahLocation

Past Weather in Al Jizah — Graph


Al Jizah Temperature Yesterday

Maximum temperature yesterday: 86 °F (at 2:00 PM)
Minimum temperature yesterday: 68 °F (at 5:00 AM)
Average temperature yesterday: 77 °F

High & Low Weather Summary for the Past Weeks

High95 °F (Oct 12, 2:00 PM)100% (Oct 14, 5:00 AM)30.09 "Hg (Oct 14, 5:00 AM)
Low66 °F (Oct 22, 5:30 AM)20% (Oct 12, 12:30 PM)29.92 "Hg (Oct 12, 1:30 PM)
Average78 °F65%29.99 "Hg
* Reported Oct 10 2:00 AM — Oct 25 2:30 AM, Al Jizah, Weather by CustomWeather, © 2016

Note: Actual official high and low records may vary slightly from our data, if they occured in-between our weather recording intervals... More about our weather records


Al Jizah Weather History for the Previous 24 Hours

Scroll right to see more
Time TempWeatherWind HumidityBarometerVisibility
2:30 AM
Tue, Oct 25
72 °FFog.No wind83%29.95 "Hg2 mi
2:00 AM72 °FClear.No wind83%29.95 "Hg4 mi
1:00 AM73 °FClear.3 mph78%29.98 "Hg10 mi
12:30 AM73 °FClear.8 mph78%29.98 "Hg10 mi
12:00 AM73 °FClear.8 mph78%29.98 "Hg10 mi
11:30 PM
Mon, Oct 24
75 °FClear.8 mph74%29.98 "Hg10 mi
11:00 PM75 °FClear.8 mph74%29.98 "Hg10 mi
10:30 PM75 °FClear.9 mph74%29.98 "Hg10 mi
10:00 PM75 °FClear.9 mph74%29.98 "Hg10 mi
9:30 PM77 °FClear.12 mph65%30.01 "Hg10 mi
9:00 PM77 °FClear.12 mph65%30.01 "Hg10 mi
8:30 PM77 °FClear.15 mph65%29.98 "Hg10 mi
8:00 PM79 °FClear.15 mph61%29.98 "Hg10 mi
7:30 PM79 °FClear.16 mph61%29.98 "Hg10 mi
7:00 PM81 °FClear.16 mph54%29.98 "Hg10 mi
6:30 PM82 °FClear.13 mph51%29.98 "Hg10 mi
6:00 PM82 °FClear.13 mph51%29.98 "Hg10 mi
5:30 PM82 °FClear.14 mph51%29.95 "Hg10 mi
5:00 PM84 °FSunny.15 mph48%29.95 "Hg10 mi
4:30 PM84 °FSunny.13 mph45%29.95 "Hg10 mi
4:00 PM86 °FSunny.14 mph43%29.95 "Hg10 mi
3:30 PM86 °FSunny.13 mph46%29.95 "Hg10 mi
3:00 PM86 °FSunny.14 mph46%29.98 "Hg10 mi
2:30 PM86 °FSunny.12 mph46%29.98 "Hg10 mi
2:00 PM86 °FSunny.16 mph46%29.98 "Hg10 mi
1:30 PM84 °FSunny.9 mph45%29.98 "Hg10 mi
1:00 PM84 °FSunny.9 mph45%29.98 "Hg10 mi
12:30 PM84 °FSunny.10 mph45%30.01 "Hg10 mi
12:00 PM82 °FSunny.7 mph51%30.01 "Hg10 mi
11:30 AM82 °FSunny.9 mph55%30.01 "Hg10 mi
11:00 AM81 °FSunny.9 mph58%30.04 "Hg10 mi
10:30 AM79 °FSunny.10 mph65%30.04 "Hg10 mi
10:00 AM77 °FSunny.10 mph69%30.04 "Hg10 mi
9:30 AM77 °FSunny.10 mph69%30.04 "Hg10 mi
9:00 AM75 °FClear.10 mph74%30.04 "Hg4 mi
8:30 AM73 °FClear.6 mph83%30.04 "Hg4 mi
8:00 AM72 °FFog.6 mph88%30.04 "Hg2 mi
7:30 AM70 °FFog.3 mph88%30.04 "Hg1 mi
7:00 AM68 °FFog.3 mph88%30.04 "Hg1 mi
6:30 AM68 °FFog.3 mph88%30.04 "Hg1 mi
6:00 AM68 °FFog.3 mph88%30.04 "Hg1 mi
5:30 AM68 °FFog.3 mph88%30.04 "Hg2 mi
5:00 AM68 °FFog.3 mph88%30.04 "Hg2 mi
4:30 AM70 °FFog.3 mph83%30.04 "Hg2 mi
4:00 AM70 °FFog.5 mph83%30.04 "Hg2 mi
3:30 AM70 °FFog.6 mph83%30.04 "Hg2 mi
3:00 AM72 °FFog.6 mph83%30.04 "Hg2 mi
Weather by CustomWeather, © 2016

See weather overviewHow to use our weather pages